Вернуться в каталог

STARLINK-37949

АктивенСвязьSSO
NORAD 69671·PAYLOAD·🇺🇸 United States

Запущен Jun 21, 2026 с Vandenberg Space Force Base

Loading…

Ближайшие Пролёты (ближайшие 24 часа)

TLE

СвежийSource: CelesTrak SupGP

Эпоха: Sep 14, 2026, 21:48 UTC

1 69671C 26143Y   26257.90881944  .00021563  00000+0  66926-3 0  2575
2 69671  97.2843 301.2167 0001432  92.8335  72.3880 15.33433203    10

Отслеживайте STARLINK-37949 в реальном времени с AllMySat

Download on the App Store